EW8485 Weather Reports


time (UTC)temp
F
wind
direction
speed
knots
gust
knots
rain 1hr
in
rain 24hr
in
rain mn
in
humidity
%
barometer
mb
20260506185618 86 107 0.9 5.2 0.00 0.00 0.00 78 1005.5
20260506185348 87 101 0.0 3.5 0.00 0.00 0.00 78 1005.6
20260506184611 87 212 0.0 3.5 0.00 0.00 0.00 79 1005.7
20260506184112 87 53 0.9 4.3 0.00 0.00 0.00 78 1005.7
20260506183612 87 115 0.9 4.3 0.00 0.00 0.00 78 1005.7
20260506183112 87 240 0.9 4.3 0.00 0.00 0.00 80 1005.7
20260506182611 86 84 0.0 2.6 0.00 0.00 0.00 79 1005.8
20260506182112 86 241 0.0 2.6 0.00 0.00 0.00 80 1005.9
20260506181614 85 257 0.9 2.6 0.00 0.00 0.00 81 1006.0
20260506181113 85 126 0.0 4.3 0.00 0.00 0.00 82 1006.2
20260506181107 85 112 0.9 4.3 0.00 0.00 0.00 81 1006.2
20260506180105 85 136 0.0 1.7 0.00 0.00 0.00 81 1006.4
20260506175606 84 134 0.0 1.7 0.00 0.00 0.00 82 1006.4
20260506175106 84 66 0.9 4.3 0.00 0.00 0.00 83 1006.5
20260506174839 84 104 0.9 4.3 0.00 0.00 0.00 82 1006.5
20260506174106 85 91 0.0 1.7 0.00 0.00 0.00 82 1006.5
20260506173601 84 245 0.0 1.7 0.00 0.00 0.00 84 1006.6
20260506173102 83 261 0.9 4.3 0.00 0.00 0.00 85 1006.6
20260506172601 82 111 1.7 5.2 0.00 0.00 0.00 85 1006.6
20260506172101 82 76 1.7 5.2 0.00 0.00 0.00 85 1006.8
20260506171602 83 149 0.9 4.3 0.00 0.00 0.00 85 1006.8
20260506171102 82 106 1.7 5.2 0.00 0.00 0.00 86 1006.8
20260506170822 82 131 1.7 5.2 0.00 0.00 0.00 86 1006.9
20260506170817 82 170 0.9 5.2 0.00 0.00 0.00 87 1006.9
20260506170812 81 148 0.9 3.5 0.00 0.00 0.00 88 1006.9
20260506170746 82 172 1.7 5.2 0.00 0.00 0.00 86 1006.8
20260506170449 82 124 0.9 5.2 0.00 0.00 0.00 86 1006.9
20260506164557 81 148 0.9 3.5 0.00 0.00 0.00 88 1006.9
20260506164054 81 73 0.9 5.2 0.00 0.00 0.00 89 1006.8
20260506163554 81 100 0.9 5.2 0.00 0.00 0.00 89 1006.8
20260506163048 80 120 0.9 4.3 0.00 0.00 0.00 89 1006.7
20260506162546 81 99 0.0 2.6 0.00 0.00 0.00 89 1006.7
20260506162046 81 102 0.0 1.7 0.00 0.00 0.00 89 1006.7
20260506161542 81 102 0.0 1.7 0.00 0.00 0.00 89 1006.6
20260506161044 80 127 0.0 1.7 0.00 0.00 0.00 90 1006.6
20260506160535 80 142 0.0 2.6 0.00 0.00 0.00 91 1006.5
20260506160038 80 84 0.9 3.5 0.00 0.00 0.00 92 1006.5
20260506155536 79 94 0.9 3.5 0.00 0.00 0.00 91 1006.5
20260506155039 79 73 0.9 2.6 0.00 0.00 0.00 92 1006.5
20260506154536 79 89 0.9 2.6 0.00 0.00 0.00 92 1006.5
20260506154039 79 102 0.9 3.5 0.00 0.00 0.00 92 1006.5
20260506153530 78 120 0.9 3.5 0.00 0.00 0.00 92 1006.5
20260506153040 79 95 0.9 3.5 0.00 0.00 0.00 92 1006.2
20260506153032 79 93 0.9 3.5 0.00 0.00 0.00 92 1006.3
20260506152035 79 148 0.9 3.5 0.00 0.00 0.00 92 1006.1
20260506151530 79 119 0.9 2.6 0.00 0.00 0.00 92 1006.1
20260506151050 79 105 0.9 2.6 0.00 0.00 0.00 92 1006.2
20260506150528 79 84 0.9 3.5 0.00 0.00 0.00 91 1006.1
20260506150030 79 73 0.9 3.5 0.00 0.00 0.00 91 1006.0
20260506145523 79 76 0.9 3.5 0.00 0.00 0.00 91 1005.9
20260506145316 79 150 0.9 3.5 0.00 0.00 0.00 91 1005.7
20260506144524 79 98 0.9 5.2 0.00 0.00 0.00 91 1005.6
20260506144028 79 119 0.9 5.2 0.00 0.00 0.00 91 1005.5
20260506143537 79 84 0.9 4.3 0.00 0.00 0.00 91 1005.4
20260506143521 79 167 0.9 5.2 0.00 0.00 0.00 91 1005.4
20260506142519 79 133 0.9 4.3 0.00 0.00 0.00 91 1005.4
20260506142032 79 119 0.9 3.5 0.00 0.00 0.00 91 1005.5
20260506141750 78 88 0.9 3.5 0.00 0.00 0.00 92 1005.5
20260506141302 78 78 0.9 3.5 0.00 0.00 0.00 92 1005.5
20260506140511 78 117 0.9 5.2 0.00 0.00 0.00 92 1005.7
20260506140018 78 89 0.9 5.2 0.00 0.00 0.00 92 1005.7
20260506135511 78 141 0.9 2.6 0.00 0.00 0.00 93 1005.7
20260506135250 78 114 0.9 0.0 0.00 0.00 0.00 94 1005.7